• Join FlightAware (Why Join?)
  • Login
  • US Flag GB Flag 
02:10 EDT


 

Airport Tracker/Info


-or-


 

Live Flight TrackerFlight Track Log ✈ DAL268 ✈ 21-May-2013 ✈ KATL - KJFK

Flight Track Log - Related Links

Times and Time Zones

All times are in EDT time to prevent confusion due to time zone crossing. See the DAL268 flight status page for this flight to view local times or setup timezone preferences in your user account.

Time Position Orientation Groundspeed Altitude Reporting Facility
EDT Latitude Longitude Course Direction KTS MPH feet Rate Location/Type
19:03 33.6167 -84.5333 253° West 241 277 4,300  Level Atlanta TRACON
19:04 33.5667 -84.5833 220° Southwest 284 327 7,800 2,400 Climbing Atlanta TRACON
19:06 33.4406 -84.5094 154° Southeast 298 343 11,300 1,920 Climbing Atlanta Center
19:07 33.4556 -84.3700 83° East 363 418 13,400 2,580 Climbing Atlanta Center
19:08 33.4747 -84.2256 81° East 401 461 16,500 2,820 Climbing Atlanta Center
19:09 33.5311 -84.0961 62° Northeast 414 476 19,100 2,220 Climbing Atlanta Center
19:10 33.5897 -83.9589 63° Northeast 445 512 21,000 900 Climbing Atlanta Center
19:11 33.6292 -83.8069 73° East 468 539 21,000 600 Level Atlanta Center
19:12 33.6600 -83.6519 77° East 476 548 22,300 960 Climbing Atlanta Center
19:13 33.7158 -83.5019 66° East 482 555 23,000 1,200 Climbing Atlanta Center
19:14 33.7839 -83.3364 64° Northeast 495 570 24,700 1,800 Climbing Atlanta Center
19:15 33.8456 -83.1858 64° Northeast 495 570 26,700 2,100 Climbing Atlanta Center
19:16 33.9050 -83.0328 65° Northeast 495 570 29,000 1,560 Climbing Atlanta Center
19:17 33.9703 -82.8767 63° Northeast 505 581 29,900 1,800 Climbing Atlanta Center
19:18 34.0294 -82.7253 65° Northeast 504 580 32,600 2,040 Climbing Atlanta Center
19:19 34.0883 -82.5789 64° Northeast 493 567 34,000 840 Climbing Atlanta Center
19:20 34.1408 -82.4400 65° Northeast 468 539 34,300 1,260 Climbing Atlanta Center
19:21 34.1953 -82.3008 65° Northeast 463 533 36,600 1,320 Climbing Atlanta Center
19:22 34.2494 -82.1617 65° Northeast 458 527 37,000 180 Climbing Atlanta Center
19:23 34.3183 -82.0217 59° Northeast 458 527 37,000  Level Atlanta Center
19:24 34.3867 -81.8792 60° Northeast 472 543 37,000  Level Atlanta Center
19:25 34.4594 -81.7411 57° Northeast 483 556 37,000  Level Atlanta Center
19:26 34.5275 -81.6006 60° Northeast 483 556 37,000  Level Atlanta Center
19:27 34.5978 -81.4622 58° Northeast 478 550 37,000  Level Atlanta Center
19:28 34.6658 -81.3239 59° Northeast 478 550 37,000  Level Atlanta Center
19:29 34.7136 -81.2239 60° Northeast 478 550 37,000  Level Atlanta Center
19:30 34.7992 -81.0489 59° Northeast 488 562 37,000  Level Atlanta Center
19:31 34.8667 -80.9097 59° Northeast 488 562 37,000  Level Atlanta Center
19:32 34.9361 -80.7678 59° Northeast 488 562 37,000  Level Atlanta Center
19:33 35.0033 -80.6283 59° Northeast 488 562 37,000  Level Atlanta Center
19:35 35.1281 -80.3664 60° Northeast 492 566 37,000  Level Washington Center
19:36 35.1961 -80.2256 59° Northeast 487 560 37,000  Level Washington Center
19:37 35.2642 -80.0844 59° Northeast 487 560 37,000  Level Washington Center
19:38 35.3386 -79.9333 59° Northeast 476 548 37,000  Level Washington Center
19:39 35.4042 -79.7917 60° Northeast 476 548 37,000  Level Washington Center
19:40 35.4717 -79.6497 60° Northeast 476 548 37,000  Level Washington Center
19:41 35.5369 -79.5100 60° Northeast 469 540 37,000  Level Washington Center
19:42 35.6042 -79.3678 60° Northeast 469 540 37,000  Level Washington Center
19:43 35.6711 -79.2228 60° Northeast 469 540 37,000  Level Washington Center
19:44 35.7381 -79.0800 60° Northeast 469 540 37,000 660 Level Washington Center
19:45 35.8025 -78.9419 60° Northeast 469 540 38,400 960 Climbing Washington Center
19:46 35.8606 -78.7983 63° Northeast 469 540 39,000 240 Climbing Washington Center
19:47 35.9206 -78.6594 62° Northeast 464 534 39,000  Level Washington Center
19:48 35.9764 -78.5181 64° Northeast 464 534 39,000  Level Washington Center
19:49 36.0361 -78.3739 63° Northeast 464 534 39,000  Level Washington Center
19:50 36.0936 -78.2294 64° Northeast 464 534 39,000  Level Washington Center
19:51 36.1444 -78.0997 64° Northeast 464 534 39,000  Level Washington Center
19:52 36.2036 -77.9550 63° Northeast 459 528 39,000  Level Washington Center
19:53 36.2628 -77.8100 63° Northeast 466 536 39,000  Level Washington Center
19:54 36.3217 -77.6647 63° Northeast 466 536 39,000  Level Washington Center
19:55 36.3806 -77.5192 63° Northeast 461 531 39,000  Level Washington Center
19:56 36.4328 -77.3733 66° East 461 531 39,000  Level Washington Center
19:57 36.5017 -77.2378 58° Northeast 461 531 39,000  Level Washington Center
20:03 37.0692 -76.5958 58° Northeast 455 524 39,000  Level FlightAware ADS-B
20:03 37.1195 -76.5386 42° Northeast 454 522 39,000  Level FlightAware ADS-B
20:04 37.1669 -76.4847 42° Northeast 452 520 39,000  Level FlightAware ADS-B
20:05 37.2323 -76.4101 42° Northeast 454 522 39,000  Level FlightAware ADS-B
20:05 37.3033 -76.3285 42° Northeast 454 522 39,000  Level FlightAware ADS-B
20:06 37.3578 -76.2661 42° Northeast 454 522 39,000  Level FlightAware ADS-B
20:08 37.5811 -76.0094 42° Northeast 458 527 39,000  Level FlightAware ADS-B
20:09 37.6307 -75.9521 42° Northeast 458 527 39,000  Level FlightAware ADS-B
20:09 37.6798 -75.8952 43° Northeast 459 528 39,000  Level FlightAware ADS-B
20:10 37.7267 -75.8408 43° Northeast 460 529 39,000  Level FlightAware ADS-B
20:11 37.7912 -75.7658 43° Northeast 460 529 39,000  Level FlightAware ADS-B
20:11 37.8527 -75.6942 43° Northeast 463 533 39,000  Level FlightAware ADS-B
20:12 37.9000 -75.6390 43° Northeast 465 535 39,000  Level FlightAware ADS-B
20:12 37.9490 -75.5816 43° Northeast 466 536 39,000  Level FlightAware ADS-B
20:13 37.9965 -75.5259 43° Northeast 467 537 39,000  Level FlightAware ADS-B
20:13 38.0204 -75.4991 41° Northeast 467 537 39,000  Level FlightAware ADS-B
20:13 38.0594 -75.4643 35° Northeast 466 536 39,000  Level FlightAware ADS-B
20:14 38.1355 -75.4123 28° Northeast 464 534 39,000  Level FlightAware ADS-B
20:15 38.1976 -75.3732 26° Northeast 463 533 39,000  Level FlightAware ADS-B
20:15 38.2611 -75.3335 26° Northeast 464 534 39,000  Level FlightAware ADS-B
20:16 38.3221 -75.2954 26° Northeast 463 533 39,000 -240 Level FlightAware ADS-B
20:16 38.4093 -75.2400 26° Northeast 462 532 38,700 -660 Descending FlightAware ADS-B
20:17 38.4671 -75.2031 27° Northeast 460 529 38,200 -1,320 Descending FlightAware ADS-B
20:17 38.5243 -75.1666 27° Northeast 462 532 37,400 -2,040 Descending FlightAware ADS-B
20:18 38.5868 -75.1265 27° Northeast 479 551 36,100 -2,100 Descending FlightAware ADS-B
20:18 38.6467 -75.0880 27° Northeast 487 560 35,200 -1,140 Descending FlightAware ADS-B
20:19 38.7109 -75.0465 27° Northeast 487 560 35,000 -720 Descending FlightAware ADS-B
20:19 38.7751 -75.0055 26° Northeast 482 555 34,500 -1,020 Descending FlightAware ADS-B
20:20 38.8346 -74.9670 27° Northeast 479 551 34,000 -1,140 Descending FlightAware ADS-B
20:20 38.8953 -74.9282 26° Northeast 478 550 33,400 -1,200 Descending FlightAware ADS-B
20:21 38.9656 -74.8829 27° Northeast 479 551 32,700 -1,200 Descending FlightAware ADS-B
20:22 39.0252 -74.8443 27° Northeast 476 548 32,100 -1,680 Descending FlightAware ADS-B
20:22 39.0709 -74.8119 29° Northeast 476 548 31,200 -2,460 Descending FlightAware ADS-B
20:22 39.0856 -74.7996 33° Northeast 479 551 30,800 -3,180 Descending FlightAware ADS-B
20:23 39.1391 -74.7466 38° Northeast 488 562 29,200 -2,940 Descending FlightAware ADS-B
20:23 39.1819 -74.7009 40° Northeast 492 566 28,200 -1,980 Descending FlightAware ADS-B
20:24 39.2430 -74.6342 40° Northeast 490 564 27,300 -1,800 Descending FlightAware ADS-B
20:24 39.3031 -74.5681 40° Northeast 485 558 26,100 -2,280 Descending FlightAware ADS-B
20:25 39.3535 -74.5132 40° Northeast 472 543 24,800 -2,640 Descending FlightAware ADS-B
20:25 39.4035 -74.4591 40° Northeast 463 533 23,500 -2,700 Descending FlightAware ADS-B
20:26 39.4540 -74.4045 40° Northeast 454 522 22,100 -2,520 Descending FlightAware ADS-B
20:26 39.5029 -74.3513 40° Northeast 446 513 20,900 -2,460 Descending FlightAware ADS-B
20:27 39.5507 -74.2986 40° Northeast 440 506 19,600 -1,920 Descending FlightAware ADS-B
20:27 39.5974 -74.2471 40° Northeast 431 496 19,000 -600 Descending FlightAware ADS-B
20:28 39.6436 -74.1963 40° Northeast 436 502 19,000 -720 Level FlightAware ADS-B
20:28 39.6900 -74.1454 40° Northeast 431 496 18,300 -1,920 Descending FlightAware ADS-B
20:29 39.7356 -74.0951 40° Northeast 421 484 17,100 -3,120 Descending FlightAware ADS-B
20:29 39.7813 -74.0448 40° Northeast 407 468 15,100 -3,720 Descending FlightAware ADS-B
20:30 39.8180 -74.0052 40° Northeast 391 450 13,600 -3,300 Descending FlightAware ADS-B
20:30 39.8685 -73.9637 32° Northeast 380 437 11,800 -2,400 Descending FlightAware ADS-B
20:31 39.9148 -73.9306 29° Northeast 370 426 11,100 -720 Descending FlightAware ADS-B
20:31 39.9600 -73.9000 27° Northeast 336 387 11,100 -120 Level FlightAware ADS-B
20:32 40.0052 -73.8700 27° Northeast 303 349 11,000 -120 Descending FlightAware ADS-B
20:32 40.0442 -73.8439 27° Northeast 294 338 11,000 -120 Level FlightAware ADS-B
20:33 40.0818 -73.8183 28° Northeast 293 337 10,900 -960 Descending FlightAware ADS-B
20:33 40.1220 -73.7913 27° Northeast 290 334 10,000 -1,740 Descending FlightAware ADS-B
20:34 40.1399 -73.7793 27° Northeast 288 331 9,500 -2,400 Descending FlightAware ADS-B
20:34 40.1577 -73.7672 27° Northeast 287 330 8,800 -2,460 Descending FlightAware ADS-B
20:34 40.1783 -73.7535 27° Northeast 285 328 8,200 -2,160 Descending FlightAware ADS-B
20:35 40.1975 -73.7408 27° Northeast 282 325 7,600 -2,340 Descending FlightAware ADS-B
20:35 40.2202 -73.7257 27° Northeast 280 322 6,800 -2,520 Descending FlightAware ADS-B
20:35 40.2408 -73.7172 17° North 280 322 6,100 -2,400 Descending FlightAware ADS-B
20:35 40.2481 -73.7176 358° North 275 316 5,900 -1,800 Descending FlightAware ADS-B
20:36 40.2800 -73.7501 322° Northwest 271 312 4,900 -1,620 Descending FlightAware ADS-B
20:36 40.2823 -73.7562 296° West 260 299 4,900 -600 Level FlightAware ADS-B
20:36 40.2913 -73.7789 297° West 248 285 4,700 -540 Descending FlightAware ADS-B
20:37 40.3062 -73.8140 299° West 227 261 4,500 -600 Descending FlightAware ADS-B
20:37 40.3141 -73.8317 300° West 222 255 4,300 -1,020 Descending FlightAware ADS-B
20:37 40.3221 -73.8504 299° West 220 253 4,000 -1,080 Descending FlightAware ADS-B
20:37 40.3317 -73.8722 300° West 219 252 3,700 -1,080 Descending FlightAware ADS-B
20:38 40.3400 -73.8907 300° West 218 251 3,400 -900 Descending FlightAware ADS-B
20:38 40.3558 -73.9255 301° West 207 238 3,000 -600 Descending FlightAware ADS-B
20:38 40.3612 -73.9325 315° West 203 234 3,000 300 Level FlightAware ADS-B
20:39 40.3708 -73.9398 330° Northwest 194 223 3,100 180 Climbing FlightAware ADS-B
20:39 40.3841 -73.9487 333° Northwest 192 221 3,100  Level FlightAware ADS-B
20:39 40.3991 -73.9590 332° Northwest 191 220 3,100 -180 Level FlightAware ADS-B
20:39 40.4136 -73.9675 336° Northwest 193 222 3,000  Descending FlightAware ADS-B
20:40 40.4218 -73.9682 356° North 198 228 3,100 240 Climbing FlightAware ADS-B
20:40 40.4370 -73.9673 North 199 229 3,100  Level FlightAware ADS-B
20:41 40.4707 -73.9661 North 200 230 3,100 -120 Level FlightAware ADS-B
20:41 40.5000 -73.9667 North 201 231 3,000 -360 Descending New York TRACON
20:42 40.5500 -73.9500 14° North 209 241 2,600 -600 Descending New York TRACON
20:43 40.6000 -73.9000 37° Northeast 186 214 1,800 -840 Descending New York TRACON
20:44 40.6333 -73.8667 37° Northeast 169 194 1,000 -600 Descending New York TRACON
20:45 40.6667 -73.8333 37° Northeast 176 203 700 -360 Descending New York TRACON